Torna al catalogo

HULIANWANG DIGUI-05

AttivoComunicazioniPO
NORAD 62327·PAYLOAD·🇨🇳 China

Lanciato Dec 16, 2024 da Wenchang Space Launch Site

Loading…

Prossimi Passaggi (prossime 24 ore)

TLE

AggiornatoSource: Space-Track

Epoca: Sep 14, 2026, 21:04 UTC

1 62327U 24240E   26257.87800845  .00000055  00000-0  93798-4 0  9994
2 62327  86.5039 313.2479 0001526  90.5521 269.5788 13.24413706 84512

Traccia HULIANWANG DIGUI-05 in tempo reale con AllMySat

Download on the App Store